Voltar ao catálogo

STARLINK-34804

AtivoComunicaçõesVLEO
NORAD 65026·PAYLOAD·🇺🇸 United States

Lançado Jul 30, 2025 de Cape Canaveral Space Force Station

Loading…

Próximas Passagens (próximas 24 horas)

TLE

AtualizadoSource: CelesTrak SupGP

Época: Sep 15, 2026, 03:02 UTC

1 65026C 25161M   26258.12687500  .00041870  00000+0  12372-2 0  2580
2 65026  53.1575 132.7348 0001233  86.8291 337.0004 15.34367281    16

Acompanhe STARLINK-34804 em tempo real com AllMySat

Download on the App Store